SCP
0 0 0 0 0 0 0 0 0 0 0 0 0 0 0 0 0 0 0 0 0 0 0 0 0 0 0 0 0 0 0 0 0 0 0 0 0 0 0 0 0 0 0
0 0 0 0 0 0 0 0 0 0 0 0 0 0 0 0 0 0 0 0 0 0 0 0 0 0 0 0 0 0 0 0 0 0 0 0 0 0 0 0 0 0 0
0 0 0 0 0 0 0 0 0 0 0 0 0 0 0 0 0 0 0 0 0 0 0 0 0 0 0 0 0 0 0 0 0 0 0 0 0 0 0 0 0 0 0
0 0 0 0 0 0 0 0 0 0 0 0 0 0 0 0 0 0 0 0 0 0 0 0 0 0 0 0 0 0 0 0 0 0 0 0 0 0 0 0 0 0 0
0 0 0 0 0 0 0 0 0 0 0 0 0 0 0 0 0 0 0 0 0 0 0 0 0 0 0 0 0 0 0 0 0 0 0 0 0 0 0 0 0 0 0
0 0 0 0 0 0 0 0 0 0 0 0 0 0 0 0 0 0 0 0 0 0 0 0 0 0 0 0 0 0 0 0 0 0 0 0 0 0 0 0 0 0 0
0 0 0 0 0 0 0 0 0 0 0 0 0 0 0 0 0 0 0 0 0 0 0 0 0 0 0 0 0 0 0 0 0 0 0 0 0 0 0 0 0 0 0
0 0 0 0 0 0 0 0 0 0 0 0 0 0 0 0 0 0 0 0 0 0 0 0 0 0 0 0 0 0 0 0 0 0 0 0 0 0 0 0 0 0 0
0 0 0 0 0 0 0 0 0 0 0 0 0 0 0 0 0 0 0 0 0 0 0 0 0 0 0 0 0 0 0 0 0 0 0 0 0 0 0 0 0 0 0
0 0 0 0 0 0 0 0 0 0 0 0 0 0 0 0 0 0 0 0 0 0 0 0 0 0 0 0 0 0 0 0 0 0 0 0 0 0 0 0 0 0 0
0 0 0 0 0 0 0 0 0 0 0 0 0 0 0 0 0 0 0 0 0 0 0 0 0 0 0 0 0 0 0 0 0 0 0 0 0 0 0 0 0 0 0
0 0 0 0 0 0 0 0 0 0 0 0 0 0 0 0 0 0 0 0 0 0 0 0 0 0 0 0 0 0 0 0 0 0 0 0 0 0 0 0 0 0 0
0 0 0 0 0 0 0 0 0 0 0 0 0 0 0 0 0 0 0 0 0 0 0 0 0 0 0 0 0 0 0 0 0 0 0 0 0 0 0 0 0 0 0
0 0 0 0 0 0 0 0 0 0 0 0 0 0 0 0 0 0 0 0 0 0 0 0 0 0 0 0 0 0 0 0 0 0 0 0 0 0 0 0 0 0 0
0 0 0 0 0 0 0 0 0 0 0 0 0 0 0 0 0 0 0 0 0 0 0 0 0 0 0 0 0 0 0 0 0 0 0 0 0 0 0 0 0 0 0
0 0 0 0 0 0 0 0 0 0 0 0 0 0 0 0 0 0 0 0 0 0 0 0 0 0 0 0 0 0 0 0 0 0 0 0 0 0 0 0 0 0 0
0 0 0 0 0 0 0 0 0 0 0 0 0 0 0 0 0 0 0 0 0 0 0 0 0 0 0 0 0 0 0 0 0 0 0 0 0 0 0 0 0 0 0
0 0 0 0 0 0 0 0 0 0 0 0 0 0 0 0 0 0 0 0 0 0 0 0 0 0 0 0 0 0 0 0 0 0 0 0 0 0 0 0 0 0 0
0 0 0 0 0 0 0 0 0 0 0 0 0 0 0 0 0 0 0 0 0 0 0 0 0 0 0 0 0 0 0 0 0 0 0 0 0 0 0 0 0 0 0
0 0 0 0 0 0 0 0 0 0 0 0 0 0 0 0 0 0 0 0 0 0 0 0 0 0 0 0 0 0 0 0 0 0 0 0 0 0 0 0 0 0 0
0 0 0 0 0 0 0 0 0 0 0 0 0 0 0 0 0 0 0 0 0 0 0 0 0 0 0 0 0 0 0 0 0 0 0 0 0 0 0 0 0 0 0
0 0 0 0 0 0 0 0 0 0 0 0 0 0 0 0 0 0 0 0 0 0 0 0 0 0 0 0 0 0 0 0 0 0 0 0 0 0 0 0 0 0 0
0 0 0 0 0 0 0 0 0 0 0 0 0 0 0 0 0 0 0 0 0 0 0 0 0 0 0 0 0 0 0 0 0 0 0 0 0 0 0 0 0 0 0
0 0 0 0 0 0 0 0 0 0 0 0 0 0 0 0 0 0 0 0 0 0 0 0 0 0 0 0 0 0 0 0 0 0 0 0 0 0 0 0 0 0 0
0 0 0 0 0 0 0 0 0 0 0 0 0 0 0 0 0 0 0 0 0 0 0 0 0 0 0 0 0 0 0 0 0 0 0 0 0 0 0 0 0 0 0
0 0 0 0 0 0 0 0 0 0 0 0 0 0 0 0 0 0 0 0 0 0 0 0 0 0 0 0 0 0 0 0 0 0 0 0 0 0 0 0 0 0 0
Wind_Speed
14 13 13 11 10 11 11 12 11 10 11 11 10 9 9 8 7 6 5 5 5 4 3 3 2 2 1 1 1 1 1 2 5 6 3 5 6 8 10 8 9 10 11
13 12 13 12 12 12 12 11 11 11 10 10 10 9 9 8 7 7 7 6 6 5 4 3 3 2 2 2 2 2 2 3 4 9 8 6 7 9 10 11 10 11 10
13 13 14 14 14 14 13 12 11 11 10 9 9 10 9 8 7 7 6 6 5 5 5 5 4 4 4 3 3 3 3 4 4 7 10 7 7 8 11 11 10 8 11
14 15 16 16 15 14 13 12 12 11 11 11 9 9 9 8 8 7 7 6 5 5 5 5 5 5 5 4 4 4 4 4 5 7 9 9 9 8 8 10 12 8 10
16 16 16 13 12 12 12 12 11 11 11 10 9 8 7 7 8 8 8 7 7 6 5 5 5 5 7 6 5 4 4 4 5 6 8 9 9 9 9 10 13 13 11
17 16 13 13 13 13 13 12 12 11 10 9 10 10 9 8 13 16 11 8 7 7 6 5 5 6 8 11 12 11 9 6 5 5 7 9 12 10 10 11 12 14 12
15 14 14 14 14 14 13 12 13 12 10 10 10 10 10 12 17 17 17 9 8 7 7 5 5 5 6 6 9 12 11 13 13 9 9 10 11 11 13 14 13 14 15
14 14 14 14 14 13 13 13 12 9 10 10 11 11 9 12 18 18 17 10 7 7 7 7 7 6 7 7 7 8 8 9 11 9 9 10 10 10 11 12 13 12 14
16 16 15 15 14 14 15 14 11 10 10 10 8 10 11 12 18 19 17 6 7 8 8 8 8 8 12 14 9 8 9 9 12 15 15 15 18 19 15 8 7 8 11
18 15 14 14 15 16 15 13 9 9 10 9 9 9 11 10 15 19 18 6 7 7 6 8 10 11 14 15 9 8 10 9 6 6 8 10 10 11 14 8 6 7 9
12 12 13 14 15 14 12 9 8 8 8 8 8 7 8 9 13 19 19 9 8 7 7 7 8 16 17 18 15 9 12 9 4 3 4 5 6 6 6 6 7 7 9
11 12 12 13 11 9 10 9 9 9 9 8 7 7 6 7 10 15 21 20 14 8 9 7 8 15 17 18 13 13 16 10 2 2 3 5 5 6 6 7 9 10 10
11 12 11 10 10 10 11 11 9 9 8 8 8 9 8 6 9 17 19 21 21 12 8 13 14 16 16 12 15 16 9 3 3 3 5 6 5 6 7 7 9 9 11
11 10 9 10 9 8 7 8 9 10 9 9 9 9 7 6 6 6 7 8 13 13 9 9 15 17 15 11 8 8 4 4 4 5 5 5 5 5 5 6 7 8 9
8 7 7 7 8 8 7 7 9 8 9 10 8 7 7 7 9 13 9 7 7 7 4 2 3 4 5 5 4 4 4 4 5 4 4 4 5 5 6 5 5 6 7
6 6 5 5 5 5 5 3 10 9 12 15 12 9 7 10 10 14 16 16 16 15 9 5 6 7 8 7 7 6 6 6 6 5 5 5 5 5 6 5 5 6 8
5 5 4 5 5 5 5 6 5 6 10 13 14 14 12 11 12 12 13 14 14 14 9 7 7 7 7 7 7 6 6 6 5 5 5 5 4 5 5 6 6 6 7
3 4 4 4 4 5 5 5 4 5 4 3 5 8 9 9 9 8 8 7 6 6 4 4 4 4 4 5 5 5 5 5 5 5 5 4 4 4 4 5 5 6 7
2 2 2 3 3 3 3 3 3 3 3 2 0 1 2 3 3 4 3 2 3 3 3 3 3 3 3 4 4 4 5 5 5 4 4 5 4 4 5 5 6 7 7
2 3 3 3 3 3 3 3 3 3 3 3 3 2 0 1 0 1 1 1 2 3 3 3 3 3 3 4 4 4 4 5 5 5 5 5 4 4 5 6 5 5 6
2 3 4 3 3 3 3 3 3 3 3 3 2 3 5 3 2 2 2 2 3 3 3 3 3 4 4 4 4 5 6 5 5 5 5 5 4 4 4 5 5 5 6
3 3 2 3 3 3 3 2 3 3 3 2 1 2 3 1 2 2 3 3 3 3 3 3 4 4 4 4 4 5 5 6 5 5 5 5 4 5 4 4 5 5 5
3 3 3 3 2 3 3 2 2 2 2 2 2 2 1 1 2 3 3 3 3 4 3 4 4 4 4 4 5 5 6 7 5 5 5 5 5 5 4 5 6 5 6
3 3 3 2 2 2 2 2 1 2 2 2 2 2 3 3 3 4 4 4 4 4 4 4 5 7 8 6 5 5 6 6 5 5 7 6 6 5 5 5 6 6 7
2 2 2 1 1 1 1 1 2 2 2 3 3 3 3 3 4 4 4 4 5 5 6 5 5 6 8 9 8 7 9 12 10 6 6 6 7 6 6 6 6 6 6
1 1 1 1 1 1 2 2 3 3 3 3 3 4 4 4 4 4 4 4 4 5 6 5 7 8 9 8 9 11 12 13 13 12 7 6 7 7 7 6 7 7 7
Wind_Direction
168 166 162 164 159 157 158 158 156 152 153 154 151 147 143 139 137 133 137 141 140 141 143 148 159 160 158 171 186 207 222 220 270 286 276 309 307 312 315 308 307 305 310
168 165 165 163 161 163 163 161 158 158 159 157 154 151 149 148 149 152 155 159 162 168 174 177 192 189 197 205 206 220 232 233 255 290 300 311 309 311 308 309 310 310 305
168 166 166 169 170 170 167 164 164 162 160 159 159 159 159 159 160 166 166 170 177 182 186 194 202 201 217 213 216 226 232 248 243 274 293 302 303 308 311 308 303 296 301
173 174 176 178 176 172 167 167 169 167 166 167 169 166 164 164 168 172 175 178 185 194 199 205 208 210 219 220 230 231 235 246 254 270 285 298 303 306 306 314 314 310 307
179 182 184 177 170 166 168 170 170 171 172 169 166 166 166 171 179 180 183 186 192 200 208 215 219 220 231 234 237 231 232 244 259 273 287 297 302 314 315 314 310 311 303
184 186 178 172 172 173 173 171 173 175 172 170 175 175 180 190 197 197 190 193 198 204 213 217 224 226 238 252 258 260 255 251 254 265 283 290 299 305 308 308 309 311 309
185 181 177 177 177 178 174 174 181 180 174 178 182 183 192 202 203 204 202 193 201 207 210 214 228 228 225 238 257 267 270 271 269 271 278 283 294 303 306 307 307 306 302
182 181 179 179 180 176 176 184 185 179 182 186 189 193 197 209 209 209 208 200 202 210 212 214 226 232 228 234 240 247 249 253 260 268 270 279 287 295 298 302 305 304 298
187 187 184 181 180 180 186 190 186 182 190 193 191 193 201 213 213 213 209 197 211 218 216 219 226 232 242 247 246 246 255 256 266 271 276 286 295 303 307 307 307 307 304
192 188 181 181 184 189 193 190 183 188 195 192 198 200 205 212 215 215 213 200 213 221 220 226 229 232 242 246 242 241 253 259 256 267 281 292 298 299 302 299 294 295 300
180 173 177 184 190 191 189 183 179 184 185 192 203 204 207 212 220 220 218 207 212 217 223 226 229 239 244 246 245 237 249 262 238 245 271 284 289 287 288 289 289 288 289
164 174 182 187 187 184 183 183 180 182 189 198 205 215 217 213 215 226 227 225 217 212 226 227 228 240 246 249 249 252 261 266 234 256 274 281 283 285 290 295 293 288 281
165 178 181 180 183 182 185 184 180 184 196 203 207 222 224 211 222 227 231 233 233 225 224 230 235 242 247 251 254 259 259 232 227 248 262 271 273 282 293 296 295 291 286
167 172 170 174 179 179 182 183 185 190 198 204 208 220 223 211 209 214 222 233 238 241 241 239 245 248 247 240 242 255 243 220 222 242 257 268 280 285 287 292 299 307 305
160 162 167 173 176 181 188 196 195 201 201 202 209 208 207 222 223 214 206 213 214 223 217 216 221 231 238 241 239 234 231 228 233 239 248 262 274 282 286 293 291 299 295
155 163 168 169 172 175 181 203 226 214 221 227 220 212 221 230 237 231 228 228 227 224 217 217 223 226 232 235 238 238 232 233 236 237 238 246 262 274 285 290 290 290 294
163 165 163 167 173 177 181 190 208 229 229 231 234 233 228 230 235 236 235 235 232 227 224 222 224 226 228 229 231 233 236 232 229 232 237 239 250 263 275 285 289 292 293
145 158 164 173 176 181 186 191 190 192 205 230 248 240 234 230 232 236 239 233 235 231 230 234 233 230 231 233 234 236 239 235 228 230 232 234 236 248 263 272 279 283 293
122 134 143 146 154 161 162 164 172 183 192 193 202 295 298 262 243 246 231 201 210 226 240 250 246 241 242 242 244 244 241 237 232 229 232 231 230 233 249 260 271 281 287
86 107 117 125 128 134 142 152 163 172 178 183 198 208 100 75 200 263 226 208 220 231 237 244 245 241 241 242 243 243 244 241 237 235 236 234 230 231 246 256 263 274 282
81 89 100 106 117 130 138 149 155 160 171 181 197 217 208 181 199 211 225 234 236 239 240 240 240 239 238 238 237 238 240 243 237 234 236 234 229 231 239 250 260 266 274
83 87 94 108 113 119 125 130 137 147 160 171 186 268 266 151 185 217 232 241 243 242 240 240 244 240 233 232 232 234 239 242 238 234 236 236 231 234 239 246 254 266 271
82 90 89 90 100 114 115 120 134 148 165 182 196 215 251 244 231 236 242 246 247 248 244 238 245 250 244 236 230 228 237 242 235 224 228 233 233 233 231 241 252 262 268
80 93 102 106 109 121 136 150 164 179 193 206 218 228 233 237 240 245 246 248 248 249 244 239 241 248 252 249 238 233 238 245 238 227 222 228 233 234 230 238 247 252 263
74 86 103 122 138 153 171 194 213 222 225 228 230 235 240 241 244 248 248 247 249 252 253 248 245 248 253 252 248 243 248 256 252 226 211 217 229 230 230 238 245 252 257
72 84 104 146 186 205 217 229 235 237 238 240 238 239 241 244 247 249 249 248 250 252 255 251 247 250 253 254 255 256 254 252 246 235 214 213 221 229 226 234 241 247 256